Content
SEND FEEDBACK

Daily
Averages
Monthly
Summary
United States of America

PRINCETON, INDIANA


Home > North America > United States > Indiana
Elevation: 477 feet     Latitude: 38 20N     Longitude: 087 34W

WEATHER
 
SELECT A DAY
Number of Records: 248,943;   Date Range: 5/26/04 - 9/14/14
 
SHARE

PRINT THIS DATA

[ ← Previous Day ]
WEATHER ALMANAC - FEBRUARY 5, 2013
[ Next Day → ]
[ °C ]   °F
Weather ElementAverageHighLow
Temperature37 °F46.4 °F (2:55 pm)30.2 °F (4:55 am)
Dewpoint32.1 °F37.4 °F (3:35 pm)28.4 °F (4:55 am)
Humidity83 %100 % (7:35 am)66 % (2:55 pm)
Barometer29.97 in30.12 in (11:55 pm)29.89 in (2:15 pm)
Wind Speed6.3 mph15 mph (12:15 pm)
Weather ElementAverage
Visibility9 mi
Wind DirectionS (185.5 °)

Weather ElementTotal
Precipitation---
Heating Degree Days26.7 (Base 65)
Averaged from 67 records on February 5, 2013
WEATHER CONDITIONS BREAKOUT
WIND DIRECTION BREAKOUT
WEATHER BY HOUR - FEBRUARY 5, 2013
[ °C ]   °F
Local TimeTemperatureDewpointHumidityBarometerVisibilityWind DirectionWind SpeedGust SpeedPrecipitationEventsConditions
12:35 AM33.8 °F30.2 °F87 %29.94 in10.0 miNNW (330°)4.6 mphMostly Cloudy
12:55 AM33.8 °F30.2 °F87 %29.94 in10.0 miNNW (340°)6.9 mphClear
1:15 AM33.8 °F30.2 °F87 %29.94 in10.0 miNNW (330°)6.9 mphClear
1:35 AM32.0 °F30.2 °F93 %29.95 in10.0 miNNW (330°)6.9 mphClear
1:55 AM32.0 °F30.2 °F93 %29.95 in10.0 miNNW (330°)5.8 mphClear
2:15 AM32.0 °F30.2 °F93 %29.94 in10.0 miCalmClear
2:35 AM32.0 °F30.2 °F93 %29.95 in7.0 miCalmClear
2:55 AM32.0 °F30.2 °F93 %29.94 in7.0 miCalmClear
3:15 AM32.0 °F30.2 °F93 %29.94 in7.0 miCalmClear
3:35 AM32.0 °F30.2 °F93 %29.93 in7.0 miCalmClear
3:55 AM32.0 °F30.2 °F93 %29.94 in7.0 miCalmClear
4:15 AM32.0 °F30.2 °F93 %29.95 in7.0 miCalmClear
4:35 AM32.0 °F30.2 °F93 %29.96 in7.0 miCalmClear
4:55 AM30.2 °F28.4 °F93 %29.95 in7.0 miCalmClear
5:15 AM30.2 °F28.4 °F93 %29.96 in7.0 miCalmClear
5:35 AM30.2 °F28.4 °F93 %29.95 in5.0 miCalmClear
6:15 AM30.2 °F28.4 °F93 %29.96 in5.0 miCalmClear
6:55 AM30.2 °F28.4 °F93 %29.97 in5.0 miCalmClear
7:15 AM30.2 °F28.4 °F93 %29.98 in2.5 miCalmClear
7:35 AM30.2 °F30.2 °F100 %29.99 in4.0 miCalmClear
7:55 AM32.0 °F30.2 °F93 %29.98 in5.0 miCalmClear
8:15 AM32.0 °F28.4 °F87 %29.99 in7.0 miCalmClear
8:35 AM32.0 °F30.2 °F93 %29.98 in7.0 miCalmClear
8:55 AM32.0 °F28.4 °F87 %29.98 in10.0 miCalmMostly Cloudy
9:15 AM32.0 °F28.4 °F87 %29.98 in10.0 miCalmOvercast
9:35 AM32.0 °F28.4 °F87 %29.98 in10.0 miSouth (170°)5.8 mphOvercast
9:55 AM33.8 °F30.2 °F87 %29.97 in10.0 miSouth (180°)6.9 mphOvercast
10:15 AM33.8 °F30.2 °F87 %29.98 in10.0 miSSW (210°)6.9 mphOvercast
10:35 AM33.8 °F30.2 °F87 %29.96 in10.0 miSouth (180°)6.9 mphOvercast
10:55 AM35.6 °F30.2 °F81 %29.96 in10.0 miSSW (200°)8.1 mphOvercast
11:15 AM35.6 °F32.0 °F87 %29.95 in10.0 miSSW (200°)10.4 mphMostly Cloudy
11:35 AM37.4 °F32.0 °F81 %29.95 in10.0 miSW (220°)11.5 mphMostly Cloudy
11:55 AM37.4 °F32.0 °F81 %29.94 in10.0 miSSW (210°)12.7 mphOvercast
12:15 PM39.2 °F32.0 °F75 %29.93 in10.0 miSW (220°)15.0 mphOvercast
12:35 PM41.0 °F32.0 °F70 %29.92 in10.0 miSW (220°)13.8 mphMostly Cloudy
12:55 PM41.0 °F33.8 °F76 %29.91 in10.0 miSSW (210°)15.0 mphClear
1:15 PM42.8 °F33.8 °F70 %29.91 in10.0 miSW (230°)15.0 mphClear
1:35 PM42.8 °F33.8 °F70 %29.91 in10.0 miWSW (240°)12.7 mphClear
1:55 PM44.6 °F35.6 °F71 %29.90 in10.0 miSW (230°)13.8 mphClear
2:15 PM44.6 °F35.6 °F71 %29.89 in10.0 miSW (220°)12.7 mphClear
2:35 PM44.6 °F35.6 °F71 %29.89 in10.0 miSW (220°)12.7 mphClear
2:55 PM46.4 °F35.6 °F66 %29.89 in10.0 miSW (230°)12.7 mphScattered Clouds
3:15 PM46.4 °F35.6 °F66 %29.90 in10.0 miWSW (250°)15.0 mphMostly Cloudy
3:35 PM46.4 °F37.4 °F71 %29.90 in10.0 miWSW (240°)10.4 mphMostly Cloudy
3:55 PM46.4 °F37.4 °F71 %29.90 in10.0 miWSW (240°)10.4 mphScattered Clouds
4:15 PM46.4 °F37.4 °F71 %29.91 in10.0 miWest (260°)11.5 mphClear
4:35 PM46.4 °F37.4 °F71 %29.91 in10.0 miWest (260°)8.1 mphClear
4:55 PM44.6 °F37.4 °F76 %29.92 in10.0 miWest (270°)6.9 mphClear
5:15 PM44.6 °F35.6 °F71 %29.93 in10.0 miWest (270°)5.8 mphClear
5:35 PM42.8 °F35.6 °F76 %29.93 in10.0 miWest (280°)5.8 mphClear
5:55 PM41.0 °F35.6 °F81 %29.95 in10.0 miWNW (300°)3.5 mphClear
6:15 PM39.2 °F35.6 °F87 %29.96 in10.0 miWest (280°)3.5 mphClear
6:35 PM39.2 °F33.8 °F81 %29.97 in10.0 miCalmClear
6:55 PM39.2 °F33.8 °F81 %29.98 in10.0 miWNW (300°)3.5 mphClear
7:15 PM37.4 °F33.8 °F87 %29.99 in10.0 miNW (320°)3.5 mphScattered Clouds
7:55 PM37.4 °F32.0 °F81 %30.01 in10.0 miWNW (300°)5.8 mphClear
8:35 PM39.2 °F33.8 °F81 %30.03 in10.0 miNW (320°)8.1 mphClear
8:55 PM41.0 °F33.8 °F76 %30.04 in10.0 miNW (320°)9.2 mphClear
9:15 PM41.0 °F33.8 °F76 %30.05 in10.0 miNNW (330°)8.1 mphClear
9:35 PM41.0 °F33.8 °F76 %30.06 in10.0 miNNW (330°)10.4 mphClear
9:55 PM39.2 °F32.0 °F75 %30.07 in10.0 miNNW (330°)10.4 mphClear
10:15 PM39.2 °F32.0 °F75 %30.08 in10.0 miNW (320°)10.4 mphClear
10:35 PM37.4 °F32.0 °F81 %30.08 in10.0 miNNW (330°)10.4 mphClear
10:55 PM37.4 °F32.0 °F81 %30.09 in10.0 miNNW (340°)9.2 mphClear
11:15 PM37.4 °F32.0 °F81 %30.09 in10.0 miNNW (340°)9.2 mphClear
11:35 PM35.6 °F32.0 °F87 %30.11 in10.0 miNW (320°)8.1 mphClear
11:55 PM35.6 °F32.0 °F87 %30.12 in10.0 miNNW (330°)8.1 mphClear
Hourly data recorded from KAJG, located miles away from Princeton, Indiana







STORIES FROM OUR PARTNERS